This demonstration page uses our WeatherBlox Daily Observations layout. Learn more.

Left ArrowRight Arrow

Hourly Observations for April 12, 2018

Temp ( °F °C ) Dew Point ( °F °C ) Humidity (%) Winds ( mph kmh ) Pressure ( in mb ) Visibility ( mi km ) Precip ( " mm )
12:59 am 00:59 Mostly Clear 47 8.3 37 2.8 69 69 S 8 13 30.19 1022 10 16 0.00 0.00
1:59 am 01:59 Clear 47 8.3 37 2.8 69 69 S 9 15 30.17 1022 10 16 0.00 0.00
2:59 am 02:59 Clear 47 8.3 38 3.3 71 71 SSW 12 19 30.16 1021 10 16 0.00 0.00
3:59 am 03:59 Clear 47 8.3 40 4.4 77 77 SSW 9 15 30.16 1021 10 16 0.00 0.00
4:59 am 04:59 Mostly Clear 47 8.3 40 4.4 77 77 SSW 9 15 30.16 1022 10 16 0.00 0.00
5:59 am 05:59 Mostly Clear 48 8.9 39 3.9 71 71 SW 9 15 30.18 1022 10 16 0.00 0.00
6:59 am 06:59 Mostly Cloudy 49 9.4 40 4.4 71 71 SW 14 22 30.19 1022 9 14 0.00 0.00
7:59 am 07:59 Mostly Cloudy 50 10 40 4.4 68 68 SW 12 19 30.21 1023 9 14 0.00 0.00
8:59 am 08:59 Mostly Cloudy 55 12.8 41 5 59 59 WSW 12 19 30.22 1023 9 14 0.00 0.00
9:59 am 09:59 Mostly Cloudy 61 16.1 43 6.1 52 52 SSW 12 19 30.22 1023 8 13 0.00 0.00
10:59 am 10:59 Mostly Cloudy 63 17.2 42 5.6 47 47 SW 13 20 30.21 1023 9 14 0.00 0.00
11:59 am 11:59 Partly Cloudy 67 19.4 44 6.7 44 44 SW 15 24 30.20 1023 10 16 0.00 0.00
12:59 pm 12:59 Partly Cloudy 70 21.1 43 6.1 38 38 WSW 17 28 30.17 1022 10 16 0.00 0.00
1:59 pm 13:59 Mostly Sunny 73 22.8 42 5.6 33 33 SW 20 31 30.14 1021 10 16 0.00 0.00
2:59 pm 14:59 Partly Cloudy 72 22.2 39 3.9 30 30 SW 18 30 30.09 1019 10 16 0.00 0.00
3:59 pm 15:59 Mostly Sunny 73 22.8 38 3.3 28 28 SW 20 31 30.06 1018 10 16 0.00 0.00
4:59 pm 16:59 Mostly Sunny 73 22.8 38 3.3 28 28 SSW 20 31 30.03 1017 10 16 0.00 0.00
5:59 pm 17:59 Mostly Sunny 73 22.8 36 2.2 26 26 SW 24 39 30.01 1016 10 16 0.00 0.00
6:59 pm 18:59 Mostly Sunny 70 21.1 35 1.7 28 28 SSW 20 31 30.02 1017 10 16 0.00 0.00
7:59 pm 19:59 Mostly Clear 66 18.9 39 3.9 37 37 S 18 30 30.04 1017 10 16 0.00 0.00
8:59 pm 20:59 Clear 64 17.8 37 2.8 37 37 S 17 28 30.04 1017 10 16 0.00 0.00
9:59 pm 21:59 Clear 63 17.2 41 5 45 45 SSW 17 28 30.06 1018 10 16 0.00 0.00
10:59 pm 22:59 Clear 62 16.7 41 5 46 46 SSW 17 28 30.07 1018 10 16 0.00 0.00
11:59 pm 23:59 Partly Cloudy 61 16.1 41 5 48 48 SSW 15 24 30.08 1019 10 16 0.00 0.00

Powered by AerisWeather